Weather History for Grand Marais, MN

Change the Weather History Date:

Tuesday, February 25, 2014

  Actual Average (KCKC) Record (KCKC)
Temperature  
Mean Temperature 2 °F -  
Max Temperature 9 °F 22 °F 42 °F (1998)
Min Temperature -6 °F 7 °F -18 °F (2003)
Degree Days  
Heating Degree Days 64    
Moisture  
Dew Point -12 °F    
Average Humidity 58    
Maximum Humidity 69    
Minimum Humidity 40    
Precipitation  
Precipitation 0.00 in - - ()
Sea Level Pressure  
Sea Level Pressure 30.19 in    
Wind  
Wind Speed 6 mph (West)    
Max Wind Speed 10 mph    
Max Gust Speed 28 mph    
Averages and records for this station are not official NWS values.
T = Trace of Precipitation, MM = Missing Value Source: NWS Daily Summary

Daily Weather History Graph

Daily Weather History Graph

Search for Another Location

Airport:

Trip Planner

Search our weather history database for the weather conditions in past years. The results will help you decide how hot, cold, wet, or windy it might be!

Date:

Astronomy

Feb. 25, 2014 Rise Set
Actual Time 6:49 AM CST 5:40 PM CST
Civil Twilight 6:18 AM CST 6:11 PM CST
Nautical Twilight 5:42 AM CST 6:47 PM CST
Astronomical Twilight 5:06 AM CST 7:22 PM CST
Moon 3:56 AM CST (2/25) 1:34 PM CST (2/25)
Length of Visible Light 11h 52m
Length of Day
10h 50m
Waning Crescent, 18% of the Moon is Illuminated
Feb 25
Waning Crescent
Mar 1
New
Mar 8
First Quarter
Mar 16
Full
Mar 23
Last Quarter

Hourly Weather History & Observations

Time (CST) Temp. Windchill Dew Point Humidity Pressure Visibility Wind Dir Wind Speed Gust Speed Precip Events Conditions
12:56 AM 3.0 °F -8.0 °F -7.1 °F 63% 30.21 in - WSW 5.8 mph - N/A   Unknown
1:56 AM 1.0 °F -12.9 °F -8.0 °F 66% 30.21 in - West 8.1 mph - N/A   Unknown
2:56 AM -0.9 °F -12.7 °F -9.9 °F 66% 30.21 in - Variable 5.8 mph - N/A   Unknown
3:56 AM -2.0 °F -13.9 °F -11.0 °F 66% 30.20 in - Variable 5.8 mph 16.1 mph N/A   Unknown
4:56 AM -4.0 °F -14.6 °F -13.0 °F 65% 30.19 in - Variable 4.6 mph - N/A   Unknown
5:56 AM -6.0 °F - -14.1 °F 68% 30.20 in - Calm Calm - N/A   Unknown
6:56 AM -5.1 °F -19.1 °F -14.1 °F 65% 30.21 in - West 6.9 mph - N/A   Unknown
7:56 AM -4.0 °F -14.6 °F -11.9 °F 69% 30.21 in - WSW 4.6 mph - N/A   Unknown
8:56 AM -2.0 °F -13.9 °F -11.0 °F 66% 30.21 in - West 5.8 mph - N/A   Unknown
9:56 AM -0.9 °F -16.4 °F -9.0 °F 69% 30.20 in - SW 9.2 mph - N/A   Unknown
10:56 AM 6.1 °F -8.7 °F -11.0 °F 45% 30.18 in - West 10.4 mph 18.4 mph N/A   Unknown
11:56 AM 6.1 °F -7.8 °F -11.0 °F 45% 30.17 in - NW 9.2 mph 26.5 mph N/A   Unknown
12:56 PM 8.1 °F -6.2 °F -11.0 °F 42% 30.15 in - WNW 10.4 mph 21.9 mph N/A   Unknown
1:56 PM 9.0 °F -2.2 °F -9.0 °F 44% 30.14 in - Variable 6.9 mph - N/A   Unknown
2:56 PM 8.1 °F -6.2 °F -11.9 °F 40% 30.15 in - NNW 10.4 mph 27.6 mph N/A   Unknown
3:56 PM 7.0 °F -5.7 °F -13.0 °F 40% 30.17 in - WNW 8.1 mph 23.0 mph N/A   Unknown
4:56 PM 3.0 °F -6.4 °F -11.0 °F 52% 30.19 in - Variable 4.6 mph 17.3 mph N/A   Unknown
5:56 PM 1.9 °F -7.6 °F -11.0 °F 55% 30.20 in - Variable 4.6 mph - N/A   Unknown
6:56 PM -0.0 °F -11.6 °F -11.9 °F 57% 30.22 in - Variable 5.8 mph - N/A   Unknown
7:56 PM -2.0 °F -12.2 °F -14.1 °F 57% 30.23 in - WNW 4.6 mph - N/A   Unknown
8:56 PM -2.9 °F -13.3 °F -13.0 °F 62% 30.22 in - Variable 4.6 mph - N/A   Unknown
9:56 PM -2.9 °F -13.3 °F -14.1 °F 59% 30.21 in - Variable 4.6 mph - N/A   Unknown
10:56 PM -4.0 °F -16.3 °F -14.1 °F 62% 30.19 in - West 5.8 mph - N/A   Unknown
11:56 PM -4.0 °F -19.0 °F -14.1 °F 62% 30.17 in - WSW 8.1 mph - N/A   Unknown